星链-30502 (STARLINK-30502 )

导读

STARLINK-30502是美国SpaceX公司星链(Starlink)星座的一员,于2023年9月30日发射入轨,运行于约550公里近地轨道。作为低轨宽带通信卫星,它搭载相控阵天线,采用OFDM传输技术,搭配氩气推进器实现轨道机动与离轨,依托星链星座架构,可为全球提供低时延、高带宽的卫星互联网接入服务。

基本信息
目录编号:
57973
目录名称:
STARLINK-30502
国际标识:
2023-151K
轨道中心:
EARTH
卫星名称:
星链-30502
卫星全名:
星链-30502 (STARLINK-30502 )
卫星状态:
在轨 (已飞行1077 天)
发射日期:
2023-09-30 UTC
国别 :
美国 (US)
星等 :
--
该卫星已列入 空间交会检测服务 Space Conjunction Data Service (SCDS) ,当前飞行风险评估等级: 无高风险
轨道信息
数据来源 国际轨道数据
星历时间: 2026-09-09T17:37:25+0800
2天前
查看轨道信息
半长轴: 6861.203km
偏心率: 0.0001688
轨道倾角: 42.999°
近地点辐角 169.670°
升交点赤经 18.402°
平近点角 190.419°
近地点: 481.907km
远地点: 484.225km
周期: 94.267分钟
每日圈数: 15.275745
详细信息
固有亮度:
5
最大亮度:
0.3
卫星平台:
Starlink v2.0 mini
覆盖范围:
全球
运营商:
太空探索技术公司
运营商所在国:
美国
制造商(研发单位):
太空探索技术公司
制造商所在国:
美国
使用方式:
暂无
卫星简介
星链(Starlink)计划是由太空探索技术公司(SpaceX)提出的一个巨型低轨卫星互联网星座项目,计划在2019年至2024年间在太空搭建由约1.2万颗卫星组成的“星链”网络,其中1584颗将部署在地球上空550千米处的近地轨道,并从2020年开始工作。该卫星仍在工作。
2D轨道图
3D轨道图
轨道高度分析图
轨道倾角分析图
轨道综合分析图
查看轨道综合分析图
交会数据列表
事件ID 空间交会对象 最接近时刻(TCA) 交会距离 交会风险概率(CRP) 交会风险指数(CRI) 操作
CDM_260913-222805-797306-386421
2026-09-13T
22:28:06+0000
1.713 km
极远距离
3.721007E-6 低风险 0.46
CDM_260912-101305-797306-651321
2026-09-12T
10:13:33+0000
1.167 km
极远距离
3.367769E-6 低风险 0.46
CDM_260912-110005-797306-651321
2026-09-12T
11:00:37+0000
1.387 km
极远距离
1.937156E-6 低风险 0.41
CDM_260912-114705-797306-651321
2026-09-12T
11:47:42+0000
1.979 km
极远距离
7.558155E-7 极低风险 0.33
CDM_260912-123405-797306-651321
2026-09-12T
12:34:46+0000
2.382 km
极远距离
5.326633E-7 极低风险 0.3
与全量物体交会距离演化趋势
与全量物体交会风险概率演化趋势